Date,TemperatureHighF,TemperatureAvgF,TemperatureLowF,DewpointHighF,DewpointAvgF,DewpointLowF,HumidityHigh,HumidityAvg,HumidityLow,PressureMaxIn,PressureMinIn,WindSpeedMaxMPH,WindSpeedAvgMPH,GustSpeedMaxMPH,PrecipitationSumIn
2013-1-1,33.6,24.7,12.6,27.3,13.9,3.0,78,63,51,29.93,29.66,25,6,25,0.00
2013-1-2,23.4,13.8,3.4,12.3,3.9,-4.9,76,64,49,30.13,29.91,26,6,26,0.00
2013-1-3,20.1,11.7,1.5,6.9,1.3,-5.2,81,64,40,30.15,30.00,16,4,16,0.00
2013-1-4,35.0,25.1,8.8,25.8,17.9,3.6,88,74,59,30.00,29.79,27,5,27,0.00
2013-1-5,34.4,29.0,17.5,27.0,19.0,12.6,85,67,52,30.28,29.80,22,5,27,0.00
2013-1-6,36.0,25.5,16.3,26.2,20.7,12.6,91,82,65,30.25,29.95,6,1,6,0.00
2013-1-7,33.1,25.9,11.1,30.1,18.1,7.9,95,73,48,30.42,29.97,16,3,21,0.00
2013-1-8,42.4,27.5,9.8,25.7,19.2,6.8,91,73,48,30.40,30.26,15,3,17,0.00
2013-1-9,29.1,26.8,24.9,22.7,22.0,20.9,85,82,76,30.42,30.39,4,2,5,0.00
2013-1-10,43.0,36.5,28.1,26.5,24.9,22.7,81,63,50,30.56,30.34,26,4,27,0.01
2013-1-11,38.1,30.4,20.6,31.9,24.7,18.6,95,80,57,30.55,30.27,8,2,9,0.10
2013-1-12,37.5,34.7,33.0,36.7,33.8,31.7,98,97,94,30.27,30.15,4,0,5,0.06
2013-1-13,42.3,36.9,34.5,41.8,36.3,34.0,98,98,96,30.18,29.98,12,1,15,0.01
2013-1-14,55.7,42.5,34.8,49.5,36.3,25.1,99,80,55,30.26,29.87,18,2,18,0.01
2013-1-15,38.2,33.2,26.4,30.4,24.1,20.5,92,70,53,30.34,30.24,15,2,15,0.00
2013-1-16,30.0,28.7,27.1,28.2,25.9,21.8,95,89,71,30.29,29.82,4,0,5,0.00
2013-1-17,37.9,29.4,18.3,30.5,20.4,1.6,95,70,47,30.15,29.81,20,3,23,0.08
2013-1-18,20.5,15.3,8.6,8.8,-1.9,-9.2,65,46,35,30.43,30.09,20,5,22,0.00
2013-1-19,37.9,26.2,16.6,28.2,16.6,5.3,82,67,55,30.38,29.87,13,3,13,0.00
2013-1-20,47.2,36.1,23.2,33.7,22.6,3.5,81,59,37,29.90,29.50,32,9,36,0.02
2013-1-21,24.9,20.6,17.1,16.6,6.4,-0.3,87,55,38,30.08,29.83,23,4,27,0.00
2013-1-22,21.5,15.4,7.0,15.6,6.6,-4.8,88,69,41,30.08,29.80,20,3,22,0.00
2013-1-23,7.0,1.9,-1.6,-4.1,-12.0,-16.9,70,52,36,30.17,30.06,22,6,23,0.00
2013-1-24,12.2,3.6,-4.4,-6.2,-11.1,-15.4,61,50,33,30.24,30.06,27,8,27,0.00
2013-1-25,12.3,5.4,3.4,-2.0,-5.2,-7.6,66,61,52,30.30,30.19,26,8,30,0.00
2013-1-31,41.5,32.7,26.2,25.7,15.6,10.9,73,49,43,29.50,29.12,30,13,40,0.16
2013-2-1,27.1,22.6,15.3,19.0,9.6,3.7,75,57,44,30.08,29.50,24,7,27,0.00
2013-2-2,23.7,18.6,11.8,14.2,7.7,2.5,75,62,47,30.24,30.07,16,3,19,0.00
2013-2-3,28.3,23.0,16.3,16.7,14.4,12.9,87,70,54,30.08,29.74,11,2,14,0.00
2013-2-4,27.2,22.1,15.5,18.0,7.9,-1.0,85,56,30,29.91,29.72,23,6,29,0.00
2013-2-5,27.8,17.5,10.1,10.2,3.7,-0.6,67,55,36,30.06,29.91,13,2,13,0.00
2013-2-6,33.6,23.8,16.3,22.4,13.0,-8.4,88,65,30,30.33,29.97,20,3,20,0.00
2013-2-7,23.2,16.0,11.4,4.9,-2.5,-6.9,56,44,27,30.57,30.32,16,4,16,0.00
2013-2-8,16.7,14.0,10.4,12.8,8.1,-4.6,91,79,38,30.57,29.87,17,4,24,0.00
2013-2-9,19.5,16.1,11.7,17.8,11.6,2.5,93,83,64,30.22,29.80,20,6,25,0.00
2013-2-10,36.1,19.3,7.9,10.5,3.3,-1.6,87,53,24,30.43,30.22,14,2,16,0.00
2013-2-11,23.1,12.5,7.1,20.6,8.9,4.1,91,85,76,30.39,30.07,6,1,7,0.00
2013-2-13,38.5,38.3,38.1,23.4,22.5,21.5,55,53,51,29.81,29.78,11,6,14,0.00
2013-2-14,37.5,37.5,37.5,21.9,21.9,21.9,53,53,53,29.78,29.78,1,1,4,0.00
2013-2-15,42.1,28.8,20.5,27.1,21.8,18.5,92,77,55,29.99,29.86,1,1,4,0.00
2013-2-16,42.1,36.1,32.0,27.1,22.1,19.1,59,56,55,29.95,29.87,5,2,5,0.00
2013-2-17,34.1,26.0,17.5,21.7,16.9,14.5,88,69,60,29.80,29.51,4,3,5,0.00
2013-2-18,27.0,23.1,9.5,5.3,-0.0,-3.1,67,36,29,30.11,29.47,24,9,27,0.00
2013-2-19,41.1,30.7,17.4,35.1,14.0,-3.4,95,53,25,30.17,29.58,14,2,15,0.11
2013-2-20,35.3,29.9,22.9,34.1,22.7,14.8,96,75,59,29.74,29.51,22,7,26,0.04
2013-2-21,26.7,22.0,17.4,18.0,12.8,7.2,85,67,55,30.25,29.73,23,5,24,0.00
2013-2-22,40.9,28.0,11.9,24.3,18.9,9.0,94,70,43,30.46,30.23,10,2,11,0.00
2013-2-23,34.7,31.6,27.8,31.9,28.2,23.2,96,87,77,30.37,30.01,12,1,14,0.00
2013-2-24,33.1,31.1,28.7,31.6,29.8,27.4,96,95,92,30.01,29.80,2,0,2,0.00
2013-2-25,38.6,31.4,23.3,33.3,29.1,22.1,96,91,72,30.27,29.93,6,1,8,0.06
2013-2-26,40.3,34.6,30.9,33.0,30.9,28.2,97,87,73,30.38,30.24,10,1,11,0.24
2013-2-27,33.0,32.1,31.5,29.3,28.9,28.5,89,88,86,30.24,30.18,6,1,8,0.00
2013-3-9,55.4,36.2,27.5,28.4,25.1,13.9,90,68,19,30.39,30.26,6,1,7,0.00
2013-3-10,45.5,27.5,21.9,30.5,23.7,20.2,94,87,49,30.44,30.39,4,0,4,0.00
2013-4-6,40.4,32.5,25.5,18.2,7.3,0.6,63,36,21,30.35,29.95,27,6,29,0.00
2013-4-7,52.7,39.8,25.5,36.7,23.5,14.6,73,53,31,30.35,29.96,32,6,32,0.00
2013-4-8,60.0,48.3,41.6,38.9,35.5,31.3,86,63,35,30.12,29.93,18,4,22,0.00
2013-4-9,55.2,44.9,40.5,45.2,40.0,35.6,94,84,62,30.11,29.91,18,2,18,0.28
2013-4-10,56.1,45.9,37.1,47.5,41.9,35.6,98,87,65,30.01,29.89,12,2,12,0.70
2013-4-11,44.7,43.0,38.3,43.9,42.1,36.7,97,97,93,29.93,29.88,4,0,4,0.04
2013-4-12,32.9,32.5,31.5,31.5,29.7,22.8,95,90,67,30.24,29.90,16,4,17,0.01
2013-4-13,50.6,40.1,32.1,39.3,34.8,30.6,95,82,59,29.94,29.81,11,2,12,0.34
2013-4-14,49.7,41.6,34.8,38.3,34.9,31.1,95,78,51,30.23,29.91,17,3,21,0.02
2013-4-15,58.9,43.1,28.2,37.3,32.1,27.0,96,69,31,30.41,30.23,17,3,19,0.00
2013-4-16,60.9,49.1,36.1,51.8,41.2,32.3,92,75,52,30.42,29.99,25,6,28,0.04
2013-4-17,59.4,52.1,38.9,52.7,34.7,29.5,86,54,33,30.35,30.00,21,6,24,0.00
2013-4-18,54.1,45.6,31.0,39.0,31.3,21.6,89,60,36,30.48,30.15,22,6,24,0.00
2013-4-19,69.9,59.6,49.3,60.9,53.1,36.3,94,80,58,30.15,29.58,31,9,35,0.01
2013-4-20,62.4,48.6,39.5,60.3,36.0,21.6,94,64,38,30.20,29.59,20,6,31,0.23
2013-4-21,50.0,40.0,33.0,26.2,20.7,16.9,72,47,27,30.72,30.20,21,5,22,0.00
2013-4-22,50.3,39.7,29.2,32.8,25.4,17.1,91,60,28,30.81,30.66,22,5,24,0.00
2013-4-23,40.7,37.1,32.1,39.2,34.1,29.5,95,89,80,30.66,30.21,8,2,10,0.00
2013-4-24,41.7,41.0,40.5,40.4,39.7,39.2,95,95,95,30.21,30.08,7,2,7,0.00
2013-4-27,65.2,57.3,46.7,41.2,34.5,27.8,77,44,27,30.44,30.27,18,4,21,0.00
2013-4-28,74.0,53.3,36.9,44.3,37.2,33.0,90,59,25,30.35,30.21,22,3,23,0.00
2013-4-29,73.3,55.3,39.8,46.8,40.0,35.4,88,60,29,30.28,30.16,20,2,22,0.00
2013-4-30,76.2,58.7,43.3,47.4,37.4,29.4,88,49,25,30.38,30.24,18,3,22,0.00
2013-5-1,78.3,57.4,37.2,44.7,35.6,27.3,84,50,18,30.47,30.37,19,3,20,0.00
2013-5-2,77.2,54.2,41.8,50.3,39.7,28.1,90,61,25,30.53,30.36,25,3,27,0.00
2013-5-3,68.1,52.8,36.4,50.3,40.9,33.7,92,66,43,30.56,30.38,17,2,18,0.00
2013-5-4,68.9,52.7,41.6,44.6,39.9,28.1,96,66,22,30.40,30.25,18,5,20,0.00
2013-5-5,73.4,51.9,34.8,43.5,38.4,33.2,95,65,26,30.35,30.22,17,3,18,0.00
2013-5-6,80.5,56.6,36.9,48.3,41.0,32.7,95,62,20,30.28,30.12,15,2,18,0.00
2013-5-7,83.8,62.3,43.2,57.5,49.1,38.5,96,68,22,30.17,30.06,20,3,20,0.00
2013-5-8,73.7,62.9,52.0,59.8,56.4,50.8,96,81,54,30.22,30.06,27,5,30,0.09
2013-5-9,71.3,59.1,55.9,60.5,57.0,55.1,98,93,66,30.07,29.89,14,2,14,0.17
2013-5-10,56.9,56.6,56.2,56.3,56.0,55.4,98,98,97,29.91,29.90,0,0,0,0.00
2013-5-11,64.7,62.4,60.3,61.9,60.0,58.1,94,92,90,29.70,29.66,20,6,20,0.27
2013-5-12,66.1,59.6,57.6,59.6,55.1,47.6,98,86,52,29.69,29.57,14,2,15,0.06
2013-5-13,52.4,48.8,44.1,34.8,30.8,27.9,68,50,41,30.05,29.91,24,7,26,0.00
2013-5-14,57.9,49.1,40.3,36.9,31.2,25.3,83,53,30,30.07,29.96,23,4,25,0.00
2013-5-15,63.5,49.2,33.6,51.0,39.6,30.9,95,74,32,30.07,29.67,24,4,27,0.07
2013-5-16,76.3,65.6,50.3,51.3,43.3,36.2,96,49,24,29.83,29.59,21,4,24,0.00
2013-5-17,67.1,56.2,48.9,45.5,41.0,35.2,81,58,32,30.23,29.82,19,4,21,0.00
2013-5-18,72.8,55.8,43.1,49.1,44.6,36.0,94,70,28,30.32,30.22,20,4,20,0.00
2013-5-19,62.0,53.9,47.7,52.8,49.2,45.2,95,84,70,30.37,30.19,13,3,13,0.18
2013-5-20,71.6,61.1,51.9,62.4,57.0,50.8,97,87,72,30.22,29.95,12,3,13,0.10
2013-5-21,61.2,55.1,50.1,57.6,53.3,48.4,97,94,87,30.14,29.93,16,3,17,0.43
2013-5-22,59.9,53.6,49.9,56.2,52.0,49.0,97,94,85,30.03,29.91,11,2,14,0.40
2013-5-23,59.0,52.0,50.5,54.8,50.7,49.6,97,95,84,29.96,29.89,5,1,5,0.01
2013-5-29,59.1,57.2,56.2,55.9,55.4,54.2,98,94,87,30.09,30.01,7,1,7,0.28
2013-5-30,85.9,70.0,56.1,66.2,61.2,55.5,99,77,44,30.06,29.98,13,2,17,0.00
2013-5-31,91.1,74.4,59.5,67.9,62.7,58.7,98,72,37,30.08,29.88,13,2,15,0.00
2013-6-1,94.4,77.2,63.3,69.2,64.9,60.2,94,69,36,29.93,29.79,15,3,17,0.00
2013-6-2,87.7,74.6,65.9,70.7,67.2,63.5,97,80,48,29.81,29.62,25,4,26,0.55
2013-6-3,78.5,69.5,61.8,65.8,60.4,49.3,97,75,37,29.80,29.70,16,3,17,0.00
2013-6-4,66.4,59.1,53.6,51.9,44.9,41.2,76,60,44,30.09,29.79,22,4,22,0.00
2013-6-5,72.8,61.3,50.0,51.2,44.2,34.7,86,57,27,30.19,30.08,15,3,15,0.00
2013-6-6,74.1,62.7,54.6,56.0,48.9,40.6,83,62,38,30.21,30.11,15,4,16,0.00
2013-6-7,59.2,53.9,50.6,53.6,50.5,45.2,96,89,69,30.12,29.88,10,2,16,0.57
2013-6-8,71.1,61.0,51.8,60.7,56.0,50.7,97,84,68,30.01,29.70,19,3,22,0.73
2013-6-9,76.7,66.6,57.6,58.7,55.9,53.5,92,70,47,30.16,30.00,15,3,16,0.00
2013-6-10,68.8,61.0,52.0,59.7,55.9,50.6,97,84,67,30.21,30.02,11,2,12,0.15
2013-6-11,62.6,56.5,54.1,57.5,54.5,52.5,96,93,80,30.04,29.58,10,1,11,0.72
2013-6-12,66.4,60.4,54.5,58.3,54.8,53.0,97,83,64,29.82,29.57,17,2,19,0.02
2013-6-13,60.2,57.9,54.4,54.8,53.6,51.7,96,86,78,29.80,29.73,4,0,4,0.07
2013-6-14,76.0,65.5,54.6,60.0,55.0,47.9,97,71,42,29.77,29.68,11,2,12,0.00
2013-6-15,63.8,61.2,59.1,56.7,54.6,53.5,82,79,76,29.80,29.77,7,2,10,0.00
2013-6-17,80.7,68.7,62.4,61.4,59.5,57.4,88,73,45,29.87,29.77,11,2,12,0.01
2013-6-18,64.0,60.7,55.5,58.7,56.0,53.6,95,85,73,29.99,29.87,6,1,8,0.07
2013-6-19,73.9,62.5,50.0,55.3,49.9,44.2,98,68,37,30.17,29.94,12,2,12,0.01
2013-6-20,80.7,63.2,47.6,56.5,50.2,45.7,96,66,37,30.27,30.16,13,2,14,0.00
2013-6-21,83.0,67.7,53.9,63.6,55.4,48.0,95,69,36,30.24,30.17,10,2,11,0.00
2013-6-22,84.6,69.0,58.9,71.3,63.4,56.6,95,83,51,30.21,30.08,6,1,8,0.04
2013-6-23,88.6,71.1,64.6,74.5,67.9,63.7,98,90,61,30.13,29.93,25,1,28,1.45
2013-6-24,90.5,75.0,65.9,71.6,68.6,65.3,99,83,50,29.98,29.83,29,2,29,0.16
2013-6-25,81.6,71.9,68.8,71.0,67.4,65.6,93,86,69,29.89,29.82,8,2,11,0.00
2013-6-26,75.4,67.8,61.7,71.0,65.8,60.5,97,93,84,29.86,29.74,12,2,13,0.24
2013-6-27,73.5,64.9,59.3,67.9,62.6,58.3,98,93,80,29.85,29.77,11,2,13,0.02
2013-6-28,66.8,61.0,57.3,64.2,59.9,56.2,98,96,91,29.78,29.51,17,2,17,1.83
2013-6-29,80.8,71.6,63.3,71.5,66.9,62.7,99,86,65,29.68,29.51,17,4,23,0.44
2013-6-30,85.6,74.1,67.4,72.4,68.4,65.2,97,84,60,29.92,29.67,21,2,25,0.73
2013-7-1,79.0,72.0,67.6,73.2,70.0,66.7,98,94,81,30.06,29.91,8,1,10,0.37
2013-7-2,74.0,65.0,60.7,72.2,63.7,59.4,98,95,87,30.21,30.04,9,2,10,0.54
2013-7-3,69.2,63.0,60.8,65.8,61.9,60.0,98,96,88,30.20,30.16,5,1,6,0.02
2013-7-5,93.3,85.4,77.8,75.6,72.9,71.3,84,68,52,30.02,29.96,9,1,11,0.00
2013-7-6,86.9,79.6,69.9,72.6,70.7,65.8,89,75,56,30.02,29.92,12,2,15,0.00
2013-7-7,87.3,76.4,66.8,75.8,69.1,65.0,96,79,53,29.99,29.88,11,1,11,0.09
2013-7-8,78.2,74.2,72.2,73.2,71.9,70.5,98,93,80,29.96,29.88,9,0,10,0.02
2013-7-9,74.8,70.5,67.5,69.0,67.2,65.3,95,89,81,30.10,30.05,11,4,12,0.03
2013-7-10,72.8,68.5,65.9,70.2,67.0,64.0,98,95,90,30.07,29.75,19,3,19,0.32
2013-7-11,82.5,74.4,68.4,73.1,69.7,61.2,99,86,59,29.95,29.74,8,1,12,0.01
2013-7-12,84.1,71.8,62.7,65.1,61.2,58.1,90,71,45,30.21,29.95,0,0,1,0.00
2013-7-13,84.5,71.7,60.6,69.2,64.1,59.2,96,79,52,30.31,30.20,10,1,11,0.00
2013-7-14,88.0,77.8,70.2,76.3,71.3,67.4,95,81,57,30.28,30.17,8,1,9,0.00
2013-7-15,91.2,79.2,69.1,73.9,69.7,65.7,98,75,49,30.18,30.05,13,1,13,0.00
2013-7-16,91.6,79.4,67.3,77.4,70.2,64.8,95,75,48,30.13,30.08,13,1,13,0.00
2013-7-17,92.7,79.7,69.9,75.8,71.3,68.7,97,78,52,30.14,29.94,8,2,9,0.00
2013-7-18,89.2,79.3,72.3,74.6,71.8,66.9,96,79,51,29.97,29.90,15,3,19,0.07
2013-7-19,92.7,82.6,70.9,76.9,73.1,68.6,98,75,51,29.91,29.63,21,4,26,0.03
2013-7-20,86.8,78.7,70.2,72.7,68.9,63.9,92,73,56,29.78,29.60,17,4,19,0.02
2013-7-21,81.6,72.3,63.5,67.3,64.4,59.5,95,77,50,29.99,29.76,17,4,18,0.00
2013-7-22,79.2,68.1,63.2,70.5,65.2,61.8,96,91,73,30.03,29.88,11,2,14,0.29
2013-7-23,77.2,65.9,61.3,70.1,64.4,60.0,98,95,78,29.90,29.53,8,1,9,2.84
2013-7-24,79.0,70.0,56.1,69.8,62.8,51.3,99,79,56,29.98,29.56,19,3,24,0.00
2013-7-25,74.5,63.6,52.4,60.7,55.0,49.6,91,75,55,30.11,29.97,8,2,10,0.00
2013-7-26,72.8,66.0,61.6,66.5,62.8,59.8,97,90,74,30.09,29.93,13,1,15,0.18
2013-7-27,85.7,72.2,64.3,67.1,62.4,55.8,94,74,41,30.02,29.95,12,2,13,0.00
2013-7-28,82.6,69.5,62.2,69.1,65.7,61.0,97,88,61,30.01,29.96,20,3,20,0.01
2013-7-29,83.2,68.9,62.8,70.7,65.5,62.0,98,90,60,30.04,29.94,17,3,17,1.56
2013-7-30,78.4,69.0,61.1,64.2,59.2,52.9,99,74,43,30.08,30.01,15,2,20,0.01
2013-7-31,83.2,70.5,58.7,65.0,59.8,50.3,97,72,37,30.12,30.01,9,2,10,0.00
2013-8-1,79.9,68.7,59.6,66.9,62.8,58.4,97,83,55,30.02,29.84,18,4,19,0.25
2013-8-2,80.4,71.0,63.3,66.8,62.6,56.1,95,77,45,29.85,29.74,13,3,19,0.27
2013-8-3,78.2,68.6,59.8,62.2,58.9,55.4,96,73,49,29.82,29.73,13,3,18,0.00
2013-8-4,74.3,67.1,58.8,60.7,56.9,52.0,92,71,54,29.86,29.76,14,3,16,0.00
2013-8-5,74.5,63.6,52.8,55.8,49.0,39.2,84,62,30,30.04,29.85,19,4,22,0.00
2013-8-6,78.5,64.8,49.9,59.7,52.4,47.5,96,68,36,30.15,30.04,13,2,14,0.00
2013-8-7,79.1,66.9,52.5,63.0,56.7,50.5,94,72,46,30.18,30.08,15,3,17,0.00
2013-8-8,84.1,71.7,63.2,71.4,65.7,58.8,91,82,64,30.09,29.96,13,3,15,0.07
2013-8-9,74.7,72.6,69.4,72.2,70.4,67.2,97,93,88,29.99,29.70,20,4,24,1.01
2013-8-10,77.6,70.3,55.9,68.2,58.0,48.7,99,68,38,30.00,29.75,19,2,20,0.01
2013-8-11,77.7,65.4,52.7,58.7,54.7,50.5,96,71,43,30.06,29.97,13,2,14,0.00
2013-8-12,80.4,68.2,57.1,62.9,58.9,54.9,97,75,47,30.00,29.89,10,2,12,0.00
2013-8-13,71.1,66.1,59.8,67.9,63.6,58.7,98,92,78,29.90,29.65,11,1,12,1.01
2013-8-14,72.1,66.1,60.1,66.0,57.2,51.4,94,74,53,29.93,29.64,21,4,21,0.00
2013-8-15,74.3,64.3,56.0,56.8,53.2,50.2,92,69,45,30.09,29.92,12,2,17,0.00
2013-8-16,79.5,66.2,55.0,60.6,55.9,52.2,95,72,41,30.19,30.08,11,1,11,0.00
2013-8-17,80.2,67.0,55.6,62.8,57.6,53.2,97,75,41,30.27,30.17,12,1,13,0.00
2013-8-18,79.1,67.3,56.8,65.7,60.5,55.7,97,80,60,30.27,30.05,6,1,7,0.00
2013-8-19,82.7,70.4,59.1,64.5,61.4,57.5,96,75,49,30.06,29.91,13,2,13,0.00
2013-8-20,83.5,71.8,61.0,67.9,63.1,59.9,97,77,47,30.08,29.95,11,1,11,0.00
2013-8-21,87.0,73.9,62.1,71.3,65.4,60.8,97,77,48,30.12,29.98,9,1,9,0.00
2013-8-22,86.0,75.3,62.4,71.0,65.9,61.0,96,74,47,29.99,29.76,15,3,17,0.00
2013-8-23,81.1,70.4,56.0,66.6,56.4,48.1,85,63,32,30.15,29.78,13,2,15,0.00
2013-8-24,82.6,63.9,49.3,57.7,52.2,46.5,94,70,31,30.32,30.14,8,2,9,0.00
2013-8-25,79.7,64.5,0.0,62.1,57.0,0.0,97,79,44,30.36,30.13,9,1,10,0.00
2013-8-26,78.6,70.0,62.2,69.6,64.7,58.8,94,84,69,30.14,29.84,15,2,16,0.12
2013-8-27,88.2,74.3,64.9,71.5,67.3,64.0,98,80,51,29.88,29.82,8,1,10,0.00
2013-8-28,93.6,73.3,63.5,74.6,67.2,62.2,97,83,49,30.00,29.83,20,1,22,0.39
2013-8-29,67.1,64.5,62.7,65.6,62.7,61.2,97,94,88,30.08,29.95,11,2,13,0.07
2013-8-30,83.7,70.9,62.1,71.1,65.6,61.0,97,84,60,30.02,29.77,10,2,11,0.01
2013-8-31,80.0,73.9,68.5,73.8,69.6,66.7,96,87,71,29.80,29.72,13,2,15,0.01
2013-9-1,84.7,75.1,71.1,74.2,70.4,68.8,97,86,63,29.86,29.75,12,1,12,0.19
2013-9-2,73.3,70.0,67.5,70.8,68.8,66.6,98,96,86,29.85,29.71,11,1,12,1.26
2013-9-3,76.0,69.2,67.1,68.1,66.7,65.2,98,93,72,29.76,29.68,10,1,11,0.02
2013-9-4,77.4,72.8,66.2,63.0,58.9,54.0,84,63,47,29.88,29.81,16,3,17,0.00
2013-9-5,67.5,61.6,48.9,60.8,50.0,39.0,95,69,37,30.15,29.84,17,2,17,0.02
2013-9-6,66.5,52.6,44.4,47.1,43.1,39.2,94,73,42,30.24,30.15,11,2,13,0.00
2013-9-15,69.0,63.3,50.1,55.7,51.3,46.1,93,66,48,30.15,30.00,12,4,13,0.00
2013-9-16,63.6,56.4,40.5,55.7,49.2,36.4,93,77,61,30.28,29.99,15,2,18,0.03
2013-9-17,65.1,50.3,36.9,49.9,40.7,34.8,95,72,47,30.45,30.28,14,2,15,0.00
2013-9-18,72.4,56.2,46.0,53.7,47.6,43.6,95,76,39,30.33,30.12,9,1,11,0.00
2013-9-19,81.1,62.0,47.6,61.4,53.3,46.1,97,77,38,30.14,30.02,9,1,10,0.00
2013-9-20,54.7,51.9,49.8,53.3,51.1,48.9,98,97,95,30.08,30.04,4,1,4,0.01
2013-9-23,56.3,51.7,47.5,43.7,41.5,38.4,78,68,59,29.99,29.86,18,5,21,0.00
2013-9-24,55.9,49.7,47.7,43.4,41.2,39.7,80,72,59,29.97,29.88,21,4,22,0.00
2013-9-26,70.8,60.3,54.2,54.0,50.9,46.8,87,72,52,30.16,30.04,9,1,9,0.00
2013-9-27,68.3,58.1,50.6,55.6,51.7,49.4,96,80,60,30.28,30.16,9,1,9,0.00
2013-9-28,73.4,59.2,47.5,58.7,52.1,46.7,98,80,45,30.37,30.27,10,1,11,0.01
2013-9-29,74.3,58.2,46.7,58.3,51.4,45.8,98,80,47,30.28,30.11,11,2,13,0.00
2013-9-30,71.9,55.3,44.2,57.6,50.4,43.1,98,85,52,30.14,29.98,10,1,10,0.00
2013-10-1,76.7,60.5,48.6,59.6,54.1,47.5,98,82,47,29.99,29.84,9,1,9,0.01
2013-10-2,77.0,64.8,0.0,62.0,57.4,0.0,98,79,57,29.92,29.79,14,2,17,0.00
2013-10-3,74.7,62.4,50.8,58.4,53.2,49.2,96,74,44,30.07,29.91,11,2,12,0.00
2013-10-4,71.0,58.4,48.5,59.3,54.1,47.7,98,87,57,30.10,30.03,5,1,5,0.00
2013-10-5,65.5,59.9,57.1,56.5,50.7,44.7,93,72,55,30.13,30.06,7,1,7,0.00
2013-10-6,57.9,51.9,48.4,54.9,46.3,39.0,97,82,61,30.27,30.13,9,1,10,0.13
2013-10-7,71.1,57.5,49.2,67.3,56.0,48.4,99,95,78,30.18,29.73,27,5,41,0.29
2013-10-8,61.8,54.6,40.6,52.5,43.8,37.4,94,68,47,30.39,29.86,18,4,19,0.00
2013-10-9,68.7,49.1,36.6,48.3,42.0,35.8,98,80,40,30.51,30.38,7,1,8,0.00
2013-10-10,66.3,51.9,41.9,54.0,47.1,40.8,98,86,52,30.39,30.19,5,1,5,0.01
2013-10-11,69.4,55.4,47.6,57.6,51.1,46.5,98,87,58,30.20,30.13,4,1,4,0.00
2013-10-12,55.2,51.4,46.1,52.9,49.5,44.8,98,93,88,30.42,30.19,9,2,11,0.01
2013-10-13,57.5,50.5,41.4,50.6,46.7,40.6,98,87,70,30.48,30.40,11,2,11,0.00
2013-10-14,70.0,55.0,41.0,54.4,47.9,40.0,97,79,50,30.40,30.22,10,2,10,0.00
2013-10-15,62.4,56.3,50.6,55.2,52.4,48.4,94,87,74,30.28,30.18,10,2,11,0.00
2013-10-16,62.4,55.8,49.6,53.4,51.1,47.5,94,85,68,30.18,29.90,11,2,11,0.00
2013-10-17,73.1,58.6,49.5,57.0,51.7,47.8,97,80,45,29.90,29.68,12,2,13,0.00
2013-10-18,63.7,57.7,53.2,55.0,49.8,38.9,97,76,55,29.87,29.58,22,5,22,0.36
2013-10-19,65.0,53.7,41.1,49.1,42.9,38.8,93,68,49,29.95,29.85,12,3,14,0.00
2013-10-20,58.8,51.8,38.3,39.4,37.0,33.8,91,58,40,30.04,29.79,19,5,22,0.00
2013-10-21,62.8,53.2,38.3,48.8,43.7,35.6,93,71,51,30.09,29.87,17,3,21,0.00
2013-10-22,56.2,51.9,46.5,53.5,47.1,36.2,95,84,66,29.88,29.70,19,4,21,0.04
2013-10-23,53.4,46.7,38.3,40.9,35.5,32.9,91,66,49,29.77,29.59,11,2,14,0.00
2013-10-24,49.2,44.7,40.3,36.5,33.1,29.8,80,64,51,29.86,29.63,27,7,27,0.00
2013-10-25,44.2,40.5,34.6,35.9,31.4,26.9,86,70,51,30.12,29.86,20,4,20,0.00
2013-10-26,50.1,43.6,31.9,38.0,32.7,28.6,91,67,48,30.13,29.86,21,6,24,0.00
2013-10-27,52.3,47.3,42.5,38.1,33.9,29.1,66,60,42,30.03,29.77,18,5,21,0.00
2013-10-28,52.8,43.1,30.7,39.7,31.0,23.0,79,63,45,30.36,30.02,19,4,22,0.00
2013-10-29,48.4,34.3,24.0,32.1,24.1,18.0,93,70,31,30.48,30.36,11,2,13,0.00
2013-10-30,47.9,38.0,29.1,35.6,31.1,25.5,94,77,58,30.38,30.21,14,2,16,0.00
2013-10-31,59.4,44.4,31.9,57.4,42.8,30.6,97,94,86,30.26,29.75,18,3,21,0.26
2013-11-1,66.0,62.0,57.7,61.3,55.9,44.7,93,81,58,29.75,29.33,32,12,38,0.05
2013-11-2,62.2,53.6,42.3,48.3,44.9,40.4,95,74,51,29.74,29.58,13,3,14,0.07
2013-11-3,45.7,38.5,27.1,42.9,27.8,15.0,90,67,35,30.44,29.74,16,3,16,0.00
2013-11-4,43.2,31.4,23.2,22.0,19.1,15.3,83,62,35,30.74,30.44,12,2,14,0.00
2013-11-5,48.2,36.9,24.7,35.5,27.8,19.6,90,71,49,30.74,30.51,14,2,15,0.00
2013-11-6,58.9,45.4,34.0,47.2,38.8,30.9,93,78,61,30.51,30.17,16,3,19,0.00
2013-11-8,43.9,39.5,37.5,31.2,26.6,23.4,68,60,50,30.04,29.84,27,6,30,0.00
2013-11-9,41.7,38.7,35.5,29.9,24.4,21.8,68,56,49,30.17,30.03,18,4,21,0.00
2013-11-10,43.2,38.9,33.3,39.6,35.6,29.3,96,88,67,30.03,29.73,13,2,18,0.10
2013-11-11,46.8,41.1,36.6,35.8,31.2,28.5,83,68,53,30.07,29.82,24,6,27,0.00
2013-11-12,45.3,32.3,27.2,36.0,21.5,15.9,81,64,56,30.16,29.84,22,6,22,0.00
2013-11-13,32.2,28.3,23.0,21.3,15.4,11.7,72,58,43,30.28,30.10,20,6,21,0.00
2013-11-14,47.0,37.6,29.6,32.4,26.6,20.7,91,65,51,30.11,30.02,19,5,19,0.00
2013-11-15,54.3,38.3,26.7,32.6,26.8,21.1,94,68,32,30.20,30.09,12,2,12,0.00
2013-11-16,56.6,40.2,31.7,42.3,31.5,26.0,89,72,36,30.34,30.18,7,1,7,0.00
2013-11-17,44.7,38.6,29.4,43.8,36.7,25.7,97,93,80,30.35,29.88,6,1,8,0.10
2013-11-18,61.6,53.6,44.9,58.2,44.7,33.5,99,74,46,29.88,29.48,23,6,23,0.37
2013-11-19,46.8,35.7,30.2,33.9,22.0,16.9,78,57,48,30.28,29.59,29,8,29,0.00
2013-11-20,40.7,31.8,24.1,19.5,17.0,14.3,77,55,35,30.65,30.27,17,3,18,0.00
2013-11-21,45.7,33.6,20.7,26.8,20.5,13.0,91,62,28,30.66,30.36,8,2,9,0.00
2013-11-22,41.3,36.6,31.2,39.7,33.1,24.7,96,87,75,30.36,29.79,10,1,11,0.04
2013-11-23,42.8,35.7,26.8,41.1,26.1,17.1,95,69,43,29.91,29.73,25,6,28,0.00
2013-11-24,26.7,20.4,16.6,19.9,7.5,2.1,79,57,45,30.17,29.75,34,10,38,0.00
2013-11-25,30.2,22.5,15.5,19.1,6.1,-3.6,64,50,28,30.36,30.16,26,7,26,0.00
2013-11-26,33.9,31.2,27.2,30.7,25.9,16.3,94,81,52,30.33,30.12,16,4,19,0.02
2013-11-27,48.4,40.6,32.2,47.9,39.2,29.8,98,95,80,30.12,29.23,19,4,24,2.13
2013-11-28,35.7,27.5,21.1,30.3,15.4,7.5,81,61,41,30.42,29.35,28,8,28,0.00
2013-11-29,27.8,20.9,11.6,12.4,9.0,5.9,87,61,40,30.77,30.42,18,4,18,0.00
2013-11-30,30.8,21.7,8.3,22.2,13.6,5.5,90,72,48,30.85,30.46,16,3,18,0.00
2013-12-1,35.9,32.4,29.2,33.0,28.9,21.5,95,87,72,30.45,30.06,12,1,12,0.02
2013-12-2,39.5,35.9,33.3,36.7,34.3,32.0,96,94,88,30.07,29.93,6,1,7,0.01
2013-12-3,43.5,34.8,29.5,38.4,33.1,27.0,97,94,80,29.95,29.87,6,1,8,0.00
2013-12-4,41.1,35.0,28.4,30.8,27.4,24.5,90,74,62,30.21,29.93,15,3,19,0.00
2013-12-5,36.2,33.4,27.4,35.3,31.1,24.8,97,91,81,30.25,29.92,6,1,7,0.09
2013-12-6,44.4,40.5,33.5,43.1,34.8,23.9,98,81,56,30.13,29.85,14,3,17,0.05
2013-12-7,35.4,31.8,25.3,30.7,20.5,12.6,92,64,45,30.44,30.08,22,4,22,0.00
2013-12-8,29.6,25.4,21.6,15.6,12.5,9.9,69,58,47,30.58,30.44,13,2,14,0.00
2013-12-9,28.2,24.5,21.0,27.0,20.1,11.9,95,84,57,30.53,29.87,11,2,15,0.00
2013-12-10,36.0,30.6,24.1,31.8,23.4,11.7,97,75,52,29.94,29.76,23,5,23,0.00
2013-12-11,30.1,25.4,19.2,20.5,15.3,12.4,92,66,51,30.16,29.94,24,8,26,0.00
2013-12-12,19.4,16.8,13.8,16.0,5.3,-1.7,87,61,40,30.29,30.03,21,6,22,0.00
2013-12-13,22.6,16.1,5.0,15.1,5.9,-6.6,83,64,48,30.43,29.94,17,5,18,0.00
2013-12-14,16.2,9.0,2.0,6.7,-0.9,-6.3,88,65,40,30.65,30.34,13,3,13,0.00
2013-12-15,27.5,18.9,8.6,25.8,15.5,5.8,93,87,70,30.34,29.49,17,4,19,0.00
2013-12-16,25.2,20.5,7.7,18.9,8.9,-1.7,77,61,39,30.22,29.69,28,6,33,0.00
2013-12-17,12.6,7.4,-6.3,9.7,1.1,-10.1,89,76,57,30.32,30.06,11,2,13,0.00
2013-12-18,31.6,22.9,12.6,21.1,17.1,9.5,89,79,61,30.07,29.90,16,2,17,0.00
2013-12-19,36.8,29.4,23.4,25.0,23.0,19.6,87,77,58,30.10,29.94,17,5,20,0.00
2013-12-20,40.4,33.5,27.3,33.4,29.7,23.9,95,86,69,30.13,29.92,6,1,7,0.03
2013-12-21,39.1,35.8,33.6,36.8,34.3,32.3,97,94,87,29.95,29.85,7,1,8,0.08
2013-12-22,40.2,32.4,28.5,39.7,31.3,27.5,98,96,94,30.09,29.85,12,3,14,0.25
2013-12-23,34.9,31.4,28.2,33.6,30.5,27.2,97,96,93,30.12,29.99,9,1,9,0.00
2013-12-24,34.8,27.3,15.8,32.7,20.1,7.8,93,74,61,30.22,30.07,14,4,18,0.00
2013-12-25,23.4,12.8,6.7,10.3,4.4,-2.7,88,69,49,30.58,30.22,18,4,23,0.00
2013-12-26,25.6,20.0,11.0,23.3,17.1,7.9,93,88,80,30.54,30.13,7,1,8,0.00
2013-12-27,32.8,24.3,13.3,23.9,18.5,10.8,95,79,58,30.25,30.17,14,3,17,0.00
2013-12-28,39.9,31.7,22.3,33.0,26.4,18.8,90,81,74,30.20,29.98,13,2,15,0.02
2013-12-29,36.7,31.9,27.2,32.8,30.1,25.7,97,93,82,30.02,29.56,6,1,6,0.09
2013-12-30,38.1,26.3,8.3,34.3,20.6,-1.8,98,79,62,30.18,29.54,26,4,26,0.48
2013-12-31,17.6,7.4,-0.7,6.6,0.5,-4.6,88,73,55,30.18,30.05,9,2,9,0.00
2014-1-1,21.1,13.6,-0.4,8.6,4.8,-3.6,90,69,48,30.42,30.16,21,5,23,0.00
2014-1-2,13.3,4.0,-2.8,7.2,-0.1,-6.2,87,83,68,30.42,30.01,12,3,15,0.00